THORAD DELTA 1 DEB

Satellite information

Favourite Embed

Satellite Type and Status

DEBRISIN ORBIT

Key statistics

Satellite THORAD DELTA 1 DEB at a glance.

Uptime

18611

Days in orbit

Revolutions

≈ 12.7

Per day

Orbit

SSO

Sun Synchronous Orbit

Inclination

101.4

Latest

Satellite identification and parameters

Extended collection of information and parameters for THORAD DELTA 1 DEB.

Object identification

Identified? True

Debris? True

Object name: THORAD DELTA 1 DEB

International designator: 1974-089Z

Object number (NORAD): 8159

Object ID (CCSDS): 8159

Country: UNITED STATES OF AMERICA (US)

Current information (Y/N): Y

RCS size: SMALL

Orbital parameters

Period: 113.555 minutes

Inclination: 101.4025 deg

SMA: 7767.793 km

Apoapsis: 1406.646 km

Periapsis: 1372.67 km

RAAN: 318.1335 deg

Eccentricy: 0.002187

Argument of periapsis: 340.051 deg

Mean anomaly: 19.9715 deg

Mean motion: 12.68108095 rev/day

Mean motion (dot): 0.00000584 rev/day2

B* drag term: 0.0032451 1/REarth

Two-line elements (TLE)

Creation date: Oct. 25, 2025, 8:16 a.m.

Reference frame: TEME

Reference center: EARTH

Epoch: Oct. 24, 2025, 11:42 p.m. UTC

TLE line 0: 0 THORAD DELTA 1 DEB

TLE line 1: 1 8159U 74089Z 25297.98818966 .00000584 00000-0 32451-2 0 9995

TLE line 2: 2 8159 101.4025 318.1335 0021870 340.0510 19.9715 12.68108095328985

Live tracking on map

Real-time ground track for satellite THORAD DELTA 1 DEB.

In-orbit conjunctions

A list of the most updated potential collisions computed for object THORAD DELTA 1 DEB.

Target Orbit TCA Probability of collision Miss distance Type
COSMOS 1692 LEO 2024-12-26 18:16:39 0.0004544998 156.0 (m) PAYLOAD
COSMOS 2146 LEO 2024-07-10 12:56:35 0.0002232145 238.0 (m) PAYLOAD

Associated space launch

Meteorological satellite using radiometric imaging

THORAD DELTA 1 DEB was lifted into orbit during the mission ‘Delta 2310 | NOAA 4’, on board a Delta 2310 space rocket.

The launch took place on Nov. 15, 1974, 5:11 p.m. from Space Launch Complex 2W.

For more information about the launch, click the button.

Launch to space Delta 2310 | NOAA 4
Delta 2310 | NOAA 4

Agency: N/A

Status: Launch Successful

Launch date: Nov. 15, 1974, 5:11 p.m. UTC

Rocket: Delta 2310

Launch pad: Space Launch Complex 2W

Location: Vandenberg SFB, CA, USA

...

Latest news about this satellite

There are no fresh news available about this satellite. Check back as we update our databases every day.


Newsletter sign-up

Weekly statistics, charts and insights to help you stay on top of the space industry.